Time,TemperatureF,DewpointF,PressureIn,WindDirection,WindDirectionDegrees,WindSpeedMPH,WindSpeedGustMPH,Humidity,HourlyPrecipIn,Conditions,Clouds,dailyrainin,SoftwareType,DateUTC
2013-04-08 00:00:00,56.1,47.6,30.14,SSW,192,0.0,0.0,73,0.00,,,0.00,Wunderground v.1.15,2013-04-08 04:00:00,
2013-04-08 00:05:00,56.4,47.5,30.14,South,190,0.0,0.0,72,0.00,,,0.00,Wunderground v.1.15,2013-04-08 04:05:00,
2013-04-08 00:15:00,56.8,47.9,30.15,South,190,0.0,0.0,72,0.00,,,0.00,Wunderground v.1.15,2013-04-08 04:15:00,
2013-04-08 00:20:00,56.8,47.9,30.14,South,190,0.0,0.0,72,0.00,,,0.00,Wunderground v.1.15,2013-04-08 04:20:00,
2013-04-08 00:25:00,56.8,47.9,30.15,South,190,0.0,0.0,72,0.00,,,0.00,Wunderground v.1.15,2013-04-08 04:25:00,
2013-04-08 00:35:00,56.4,47.9,30.14,South,190,0.0,0.0,73,0.00,,,0.00,Wunderground v.1.15,2013-04-08 04:35:00,
2013-04-08 00:40:00,56.3,48.1,30.14,South,190,0.0,0.0,74,0.00,,,0.00,Wunderground v.1.15,2013-04-08 04:40:00,
2013-04-08 00:50:00,56.2,48.4,30.15,South,190,0.0,0.0,75,0.00,,,0.00,Wunderground v.1.15,2013-04-08 04:50:00,
2013-04-08 00:55:00,56.2,48.4,30.15,South,190,0.0,0.0,75,0.00,,,0.00,Wunderground v.1.15,2013-04-08 04:55:00,
2013-04-08 01:00:00,56.0,48.5,30.15,South,190,0.0,0.0,76,0.00,,,0.00,Wunderground v.1.15,2013-04-08 05:00:00,
2013-04-08 01:05:00,55.9,48.4,30.15,South,190,0.0,0.0,76,0.00,,,0.00,Wunderground v.1.15,2013-04-08 05:05:00,
2013-04-08 01:15:00,55.7,48.6,30.15,South,190,0.0,0.0,77,0.00,,,0.00,Wunderground v.1.15,2013-04-08 05:15:00,
2013-04-08 01:25:00,55.4,48.3,30.15,South,190,0.0,0.0,77,0.00,,,0.00,Wunderground v.1.15,2013-04-08 05:25:00,
2013-04-08 01:30:00,55.3,48.6,30.14,South,190,0.0,0.0,78,0.00,,,0.00,Wunderground v.1.15,2013-04-08 05:30:00,
2013-04-08 01:35:00,55.2,48.8,30.15,South,190,0.0,0.0,79,0.00,,,0.00,Wunderground v.1.15,2013-04-08 05:35:00,
2013-04-08 01:40:00,55.0,48.6,30.15,South,190,0.0,0.0,79,0.00,,,0.00,Wunderground v.1.15,2013-04-08 05:40:00,
2013-04-08 01:45:00,54.9,48.5,30.14,South,190,0.0,0.0,79,0.00,,,0.00,Wunderground v.1.15,2013-04-08 05:45:00,
2013-04-08 01:55:00,54.6,48.9,30.14,South,190,0.0,0.0,81,0.00,,,0.00,Wunderground v.1.15,2013-04-08 05:55:00,
2013-04-08 02:00:00,54.6,48.9,30.14,South,190,0.0,0.0,81,0.00,,,0.00,Wunderground v.1.15,2013-04-08 06:00:00,
2013-04-08 02:05:00,54.4,48.7,30.14,South,190,0.0,0.0,81,0.00,,,0.00,Wunderground v.1.15,2013-04-08 06:05:00,
2013-04-08 02:15:00,54.0,48.6,30.14,South,190,0.0,0.0,82,0.00,,,0.00,Wunderground v.1.15,2013-04-08 06:15:00,
2013-04-08 02:20:00,53.8,48.4,30.14,South,190,0.0,0.0,82,0.00,,,0.00,Wunderground v.1.15,2013-04-08 06:20:00,
2013-04-08 02:25:00,53.5,48.1,30.14,South,190,0.0,0.0,82,0.00,,,0.00,Wunderground v.1.15,2013-04-08 06:25:00,
2013-04-08 02:35:00,52.9,47.9,30.13,South,190,0.0,0.0,83,0.00,,,0.00,Wunderground v.1.15,2013-04-08 06:35:00,
2013-04-08 02:40:00,52.6,47.9,30.13,South,190,0.0,0.0,84,0.00,,,0.00,Wunderground v.1.15,2013-04-08 06:40:00,
2013-04-08 02:45:00,52.3,47.6,30.13,South,190,0.0,0.0,84,0.00,,,0.00,Wunderground v.1.15,2013-04-08 06:45:00,
2013-04-08 02:55:00,51.8,47.4,30.13,South,190,0.0,0.0,85,0.00,,,0.00,Wunderground v.1.15,2013-04-08 06:55:00,
2013-04-08 03:00:00,51.6,47.5,30.13,South,190,0.0,0.0,86,0.00,,,0.00,Wunderground v.1.15,2013-04-08 07:00:00,
2013-04-08 03:05:00,51.3,47.6,30.13,South,190,0.0,0.0,87,0.00,,,0.00,Wunderground v.1.15,2013-04-08 07:05:00,
2013-04-08 03:15:00,51.0,47.6,30.13,South,190,0.0,0.0,88,0.00,,,0.00,Wunderground v.1.15,2013-04-08 07:15:00,
2013-04-08 03:25:00,50.7,47.6,30.12,South,190,0.0,0.0,89,0.00,,,0.00,Wunderground v.1.15,2013-04-08 07:25:00,
2013-04-08 03:30:00,50.6,47.5,30.12,South,190,0.0,0.0,89,0.00,,,0.00,Wunderground v.1.15,2013-04-08 07:30:00,
2013-04-08 03:35:00,50.4,47.3,30.12,South,190,0.0,0.0,89,0.00,,,0.00,Wunderground v.1.15,2013-04-08 07:35:00,
2013-04-08 03:45:00,50.1,47.3,30.12,South,190,0.0,0.0,90,0.00,,,0.00,Wunderground v.1.15,2013-04-08 07:45:00,
2013-04-08 03:50:00,50.0,47.2,30.12,South,190,0.0,0.0,90,0.00,,,0.00,Wunderground v.1.15,2013-04-08 07:50:00,
2013-04-08 04:00:00,49.7,47.2,30.12,South,190,0.0,0.0,91,0.00,,,0.00,Wunderground v.1.15,2013-04-08 08:00:00,
2013-04-08 04:05:00,49.6,47.1,30.12,South,190,0.0,0.0,91,0.00,,,0.00,Wunderground v.1.15,2013-04-08 08:05:00,
2013-04-08 04:15:00,49.3,46.8,30.13,South,190,0.0,0.0,91,0.00,,,0.00,Wunderground v.1.15,2013-04-08 08:15:00,
2013-04-08 04:20:00,49.2,46.7,30.12,South,190,0.0,0.0,91,0.00,,,0.00,Wunderground v.1.15,2013-04-08 08:20:00,
2013-04-08 04:25:00,49.1,46.9,30.12,South,190,0.0,0.0,92,0.00,,,0.00,Wunderground v.1.15,2013-04-08 08:25:00,
2013-04-08 04:35:00,49.0,46.8,30.12,South,190,0.0,0.0,92,0.00,,,0.00,Wunderground v.1.15,2013-04-08 08:35:00,
2013-04-08 04:40:00,48.9,46.7,30.13,South,190,0.0,0.0,92,0.00,,,0.00,Wunderground v.1.15,2013-04-08 08:40:00,
2013-04-08 04:45:00,48.9,47.0,30.12,South,190,0.0,0.0,93,0.00,,,0.00,Wunderground v.1.15,2013-04-08 08:45:00,
2013-04-08 04:50:00,48.9,47.0,30.13,South,190,0.0,0.0,93,0.00,,,0.00,Wunderground v.1.15,2013-04-08 08:50:00,
2013-04-08 05:00:00,48.7,46.8,30.13,South,190,0.0,0.0,93,0.00,,,0.00,Wunderground v.1.15,2013-04-08 09:00:00,
2013-04-08 05:05:00,48.6,46.7,30.13,South,190,0.0,0.0,93,0.00,,,0.00,Wunderground v.1.15,2013-04-08 09:05:00,
2013-04-08 05:15:00,48.5,46.6,30.13,South,190,0.0,0.0,93,0.00,,,0.00,Wunderground v.1.15,2013-04-08 09:15:00,
2013-04-08 05:20:00,48.4,46.8,30.13,South,190,0.0,0.0,94,0.00,,,0.00,Wunderground v.1.15,2013-04-08 09:20:00,
2013-04-08 05:25:00,48.4,46.8,30.13,South,190,0.0,0.0,94,0.00,,,0.00,Wunderground v.1.15,2013-04-08 09:25:00,
2013-04-08 05:35:00,48.4,46.8,30.13,South,190,0.0,0.0,94,0.00,,,0.00,Wunderground v.1.15,2013-04-08 09:35:00,
2013-04-08 05:40:00,48.3,46.7,30.13,South,190,0.0,0.0,94,0.00,,,0.00,Wunderground v.1.15,2013-04-08 09:40:00,
2013-04-08 05:45:00,48.3,46.7,30.13,South,190,0.0,0.0,94,0.00,,,0.00,Wunderground v.1.15,2013-04-08 09:45:00,
2013-04-08 05:55:00,48.2,46.6,30.13,South,190,0.0,0.0,94,0.00,,,0.00,Wunderground v.1.15,2013-04-08 09:55:00,
2013-04-08 06:00:00,48.2,46.8,30.14,South,190,0.0,0.0,95,0.00,,,0.00,Wunderground v.1.15,2013-04-08 10:00:00,
2013-04-08 06:05:00,48.2,46.8,30.14,South,190,0.0,0.0,95,0.00,,,0.00,Wunderground v.1.15,2013-04-08 10:05:00,
2013-04-08 06:15:00,48.1,46.7,30.14,South,190,0.0,0.0,95,0.00,,,0.00,Wunderground v.1.15,2013-04-08 10:15:00,
2013-04-08 06:25:00,48.1,46.7,30.14,South,190,0.0,0.0,95,0.00,,,0.00,Wunderground v.1.15,2013-04-08 10:25:00,
2013-04-08 06:30:00,48.1,46.7,30.14,South,190,0.0,0.0,95,0.00,,,0.00,Wunderground v.1.15,2013-04-08 10:30:00,
2013-04-08 06:40:00,48.2,46.8,30.15,South,190,0.0,0.0,95,0.00,,,0.00,Wunderground v.1.15,2013-04-08 10:40:00,
2013-04-08 06:45:00,48.3,46.9,30.15,South,190,0.0,0.0,95,0.00,,,0.00,Wunderground v.1.15,2013-04-08 10:45:00,
2013-04-08 06:50:00,48.2,46.8,30.16,South,190,0.0,0.0,95,0.00,,,0.00,Wunderground v.1.15,2013-04-08 10:50:00,
2013-04-08 06:55:00,48.1,46.7,30.16,South,190,0.0,0.0,95,0.00,,,0.00,Wunderground v.1.15,2013-04-08 10:55:00,
2013-04-08 07:00:00,48.0,46.6,30.16,South,190,0.0,0.0,95,0.00,,,0.00,Wunderground v.1.15,2013-04-08 11:00:00,
2013-04-08 07:05:00,47.9,46.5,30.16,South,190,0.0,0.0,95,0.00,,,0.00,Wunderground v.1.15,2013-04-08 11:05:00,
2013-04-08 07:15:00,47.8,46.7,30.16,South,190,0.0,0.0,96,0.00,,,0.00,Wunderground v.1.15,2013-04-08 11:15:00,
2013-04-08 07:20:00,47.8,46.7,30.17,South,190,0.0,0.0,96,0.00,,,0.00,Wunderground v.1.15,2013-04-08 11:20:00,
2013-04-08 07:25:00,47.9,46.8,30.17,South,190,0.0,0.0,96,0.00,,,0.00,Wunderground v.1.15,2013-04-08 11:25:00,
2013-04-08 07:30:00,47.8,46.7,30.17,South,190,0.0,0.0,96,0.00,,,0.00,Wunderground v.1.15,2013-04-08 11:30:00,
2013-04-08 07:35:00,47.8,46.7,30.17,South,190,0.0,0.0,96,0.00,,,0.00,Wunderground v.1.15,2013-04-08 11:35:00,
2013-04-08 07:40:00,47.9,46.8,30.17,South,190,0.0,0.0,96,0.00,,,0.00,Wunderground v.1.15,2013-04-08 11:40:00,
2013-04-08 07:50:00,48.2,47.1,30.18,South,190,0.0,0.0,96,0.00,,,0.00,Wunderground v.1.15,2013-04-08 11:50:00,
2013-04-08 07:55:00,48.8,48.0,30.18,South,190,0.0,0.0,97,0.00,,,0.00,Wunderground v.1.15,2013-04-08 11:55:00,
2013-04-08 08:00:00,50.1,49.6,30.18,South,190,0.0,0.0,98,0.00,,,0.00,Wunderground v.1.15,2013-04-08 12:00:00,
2013-04-08 08:05:00,50.8,50.3,30.18,South,190,0.0,0.0,98,0.00,,,0.00,Wunderground v.1.15,2013-04-08 12:05:00,
2013-04-08 08:15:00,52.0,51.5,30.18,South,190,0.0,0.0,98,0.00,,,0.00,Wunderground v.1.15,2013-04-08 12:15:00,
2013-04-08 08:20:00,52.6,52.1,30.18,South,190,0.0,0.0,98,0.00,,,0.00,Wunderground v.1.15,2013-04-08 12:20:00,
2013-04-08 08:25:00,53.7,53.1,30.18,South,190,0.0,0.0,98,0.00,,,0.00,Wunderground v.1.15,2013-04-08 12:25:00,
2013-04-08 08:30:00,54.4,53.8,30.18,South,190,0.0,0.0,98,0.00,,,0.00,Wunderground v.1.15,2013-04-08 12:30:00,
2013-04-08 08:35:00,55.0,54.4,30.18,South,190,0.0,0.0,98,0.00,,,0.00,Wunderground v.1.15,2013-04-08 12:35:00,
2013-04-08 08:40:00,55.7,55.1,30.18,South,190,0.0,0.0,98,0.00,,,0.00,Wunderground v.1.15,2013-04-08 12:40:00,
2013-04-08 08:50:00,57.0,56.2,30.18,SE,126,1.0,1.0,97,0.00,,,0.00,Wunderground v.1.15,2013-04-08 12:50:00,
2013-04-08 08:55:00,57.6,56.5,30.18,SE,130,0.0,1.0,96,0.00,,,0.00,Wunderground v.1.15,2013-04-08 12:55:00,
2013-04-08 09:00:00,58.0,56.6,30.18,SE,146,0.0,0.0,95,0.00,,,0.00,Wunderground v.1.15,2013-04-08 13:00:00,
2013-04-08 09:05:00,58.5,56.8,30.18,SW,236,1.0,1.0,94,0.00,,,0.00,Wunderground v.1.15,2013-04-08 13:05:00,
2013-04-08 09:15:00,59.4,57.1,30.18,South,189,0.0,2.0,92,0.00,,,0.00,Wunderground v.1.15,2013-04-08 13:15:00,
2013-04-08 09:20:00,60.3,57.4,30.17,SE,146,1.0,1.0,90,0.00,,,0.00,Wunderground v.1.15,2013-04-08 13:20:00,
2013-04-08 09:30:00,61.6,57.7,30.17,SSE,148,1.0,1.0,87,0.00,,,0.00,Wunderground v.1.15,2013-04-08 13:30:00,
2013-04-08 09:35:00,62.2,57.6,30.17,NW,308,1.0,1.0,85,0.00,,,0.00,Wunderground v.1.15,2013-04-08 13:35:00,
2013-04-08 09:40:00,62.9,58.0,30.17,SSE,160,1.0,2.0,84,0.00,,,0.00,Wunderground v.1.15,2013-04-08 13:40:00,
2013-04-08 09:45:00,63.6,57.7,30.17,SE,143,1.0,2.0,81,0.00,,,0.00,Wunderground v.1.15,2013-04-08 13:45:00,
2013-04-08 09:55:00,64.5,57.5,30.17,ESE,121,1.0,2.0,78,0.00,,,0.00,Wunderground v.1.15,2013-04-08 13:55:00,
2013-04-08 10:00:00,65.2,57.1,30.17,West,271,1.0,2.0,75,0.00,,,0.00,Wunderground v.1.15,2013-04-08 14:00:00,
2013-04-08 10:05:00,65.7,56.8,30.17,NW,306,2.0,2.0,73,0.00,,,0.00,Wunderground v.1.15,2013-04-08 14:05:00,
2013-04-08 10:15:00,66.7,57.0,30.17,West,266,3.0,3.0,71,0.00,,,0.00,Wunderground v.1.15,2013-04-08 14:15:00,
2013-04-08 10:20:00,67.2,56.3,30.17,SSE,152,2.0,2.0,68,0.00,,,0.00,Wunderground v.1.15,2013-04-08 14:20:00,
2013-04-08 10:30:00,67.9,56.9,30.17,SSW,203,2.0,2.0,68,0.00,,,0.00,Wunderground v.1.15,2013-04-08 14:30:00,
2013-04-08 10:50:00,69.5,57.6,30.17,SE,126,2.0,3.0,66,0.00,,,0.00,Wunderground v.1.15,2013-04-08 14:50:00,
2013-04-08 10:55:00,69.8,57.1,30.17,WNW,287,3.0,3.0,64,0.00,,,0.00,Wunderground v.1.15,2013-04-08 14:55:00,
2013-04-08 11:00:00,70.0,57.7,30.17,NW,309,3.0,3.0,65,0.00,,,0.00,Wunderground v.1.15,2013-04-08 15:00:00,
2013-04-08 11:05:00,70.1,57.4,30.17,SE,134,3.0,3.0,64,0.00,,,0.00,Wunderground v.1.15,2013-04-08 15:05:00,
2013-04-08 11:15:00,70.5,57.7,30.17,SSE,166,3.0,3.0,64,0.00,,,0.00,Wunderground v.1.15,2013-04-08 15:15:00,
2013-04-08 11:25:00,70.3,57.5,30.17,WSW,251,3.0,3.0,64,0.00,,,0.00,Wunderground v.1.15,2013-04-08 15:25:00,
2013-04-08 11:30:00,70.6,57.4,30.17,ESE,121,2.0,2.0,63,0.00,,,0.00,Wunderground v.1.15,2013-04-08 15:30:00,
2013-04-08 11:40:00,71.1,57.9,30.16,NW,319,3.0,3.0,63,0.00,,,0.00,Wunderground v.1.15,2013-04-08 15:40:00,
2013-04-08 11:45:00,71.3,57.6,30.16,SSE,153,3.0,3.0,62,0.00,,,0.00,Wunderground v.1.15,2013-04-08 15:45:00,
2013-04-08 11:50:00,71.6,57.9,30.16,SE,138,3.0,3.0,62,0.00,,,0.00,Wunderground v.1.15,2013-04-08 15:50:00,
2013-04-08 11:55:00,72.1,58.4,30.16,South,171,3.0,3.0,62,0.00,,,0.00,Wunderground v.1.15,2013-04-08 15:55:00,
2013-04-08 12:05:00,72.5,58.3,30.16,SE,133,2.0,4.0,61,0.00,,,0.00,Wunderground v.1.15,2013-04-08 16:05:00,
2013-04-08 12:15:00,72.9,58.2,30.16,South,178,3.0,3.0,60,0.00,,,0.00,Wunderground v.1.15,2013-04-08 16:15:00,
2013-04-08 12:20:00,73.0,58.3,30.16,SE,142,3.0,3.0,60,0.00,,,0.00,Wunderground v.1.15,2013-04-08 16:20:00,
2013-04-08 12:25:00,73.4,58.2,30.16,SE,146,2.0,5.0,59,0.00,,,0.00,Wunderground v.1.15,2013-04-08 16:25:00,
2013-04-08 12:35:00,73.9,58.7,30.15,ESE,122,2.0,3.0,59,0.00,,,0.00,Wunderground v.1.15,2013-04-08 16:35:00,
2013-04-08 12:40:00,74.8,59.0,30.15,WSW,257,2.0,2.0,58,0.00,,,0.00,Wunderground v.1.15,2013-04-08 16:40:00,
2013-04-08 12:45:00,75.1,59.3,30.14,SSE,165,3.0,3.0,58,0.00,,,0.00,Wunderground v.1.15,2013-04-08 16:45:00,
2013-04-08 12:50:00,75.2,58.4,30.14,SSE,168,3.0,5.0,56,0.00,,,0.00,Wunderground v.1.15,2013-04-08 16:50:00,
2013-04-08 12:55:00,75.3,58.5,30.14,WNW,295,3.0,5.0,56,0.00,,,0.00,Wunderground v.1.15,2013-04-08 16:55:00,
2013-04-08 13:05:00,75.7,58.4,30.13,NNW,345,4.0,7.0,55,0.00,,,0.00,Wunderground v.1.15,2013-04-08 17:05:00,
2013-04-08 13:15:00,76.1,58.2,30.13,South,189,4.0,7.0,54,0.00,,,0.00,Wunderground v.1.15,2013-04-08 17:15:00,
2013-04-08 13:20:00,76.4,58.0,30.12,SSE,159,3.0,3.0,53,0.00,,,0.00,Wunderground v.1.15,2013-04-08 17:20:00,
2013-04-08 13:25:00,76.2,57.3,30.12,WNW,300,3.0,6.0,52,0.00,,,0.00,Wunderground v.1.15,2013-04-08 17:25:00,
2013-04-08 13:30:00,76.3,57.9,30.12,SE,137,4.0,4.0,53,0.00,,,0.00,Wunderground v.1.15,2013-04-08 17:30:00,
2013-04-08 13:35:00,76.4,57.5,30.11,SE,133,4.0,4.0,52,0.00,,,0.00,Wunderground v.1.15,2013-04-08 17:35:00,
2013-04-08 13:45:00,77.5,57.9,30.11,SE,136,3.0,9.0,51,0.00,,,0.00,Wunderground v.1.15,2013-04-08 17:45:00,
2013-04-08 13:50:00,77.5,56.8,30.11,West,259,4.0,4.0,49,0.00,,,0.00,Wunderground v.1.15,2013-04-08 17:50:00,
2013-04-08 13:55:00,77.3,57.2,30.10,South,184,4.0,5.0,50,0.00,,,0.00,Wunderground v.1.15,2013-04-08 17:55:00,
2013-04-08 14:00:00,77.1,58.1,30.10,WNW,299,3.0,3.0,52,0.00,,,0.00,Wunderground v.1.15,2013-04-08 18:00:00,
2013-04-08 14:05:00,77.2,57.1,30.10,SSE,148,3.0,4.0,50,0.00,,,0.00,Wunderground v.1.15,2013-04-08 18:05:00,
2013-04-08 14:15:00,77.2,56.6,30.10,SSE,157,3.0,3.0,49,0.00,,,0.00,Wunderground v.1.15,2013-04-08 18:15:00,
2013-04-08 14:20:00,77.7,57.0,30.10,SE,136,3.0,3.0,49,0.00,,,0.00,Wunderground v.1.15,2013-04-08 18:20:00,
2013-04-08 14:25:00,77.3,56.6,30.09,SSE,148,3.0,3.0,49,0.00,,,0.00,Wunderground v.1.15,2013-04-08 18:25:00,
2013-04-08 14:30:00,76.6,57.1,30.10,SSE,151,2.0,2.0,51,0.00,,,0.00,Wunderground v.1.15,2013-04-08 18:30:00,
2013-04-08 14:35:00,76.1,56.1,30.10,SE,132,2.0,2.0,50,0.00,,,0.00,Wunderground v.1.15,2013-04-08 18:35:00,
2013-04-08 14:45:00,76.7,57.2,30.09,ESE,114,2.0,2.0,51,0.00,,,0.00,Wunderground v.1.15,2013-04-08 18:45:00,
2013-04-08 14:55:00,77.3,56.6,30.08,SSE,148,2.0,3.0,49,0.00,,,0.00,Wunderground v.1.15,2013-04-08 18:55:00,
2013-04-08 15:00:00,78.1,57.4,30.08,SW,226,2.0,2.0,49,0.00,,,0.00,Wunderground v.1.15,2013-04-08 19:00:00,
2013-04-08 15:05:00,78.7,57.4,30.08,SSW,196,3.0,3.0,48,0.00,,,0.00,Wunderground v.1.15,2013-04-08 19:05:00,
2013-04-08 15:15:00,78.3,56.4,30.08,NW,315,3.0,5.0,47,0.00,,,0.00,Wunderground v.1.15,2013-04-08 19:15:00,
2013-04-08 15:20:00,78.7,56.8,30.08,NW,305,4.0,4.0,47,0.00,,,0.00,Wunderground v.1.15,2013-04-08 19:20:00,
2013-04-08 15:30:00,79.1,56.5,30.07,SSW,200,2.0,4.0,46,0.00,,,0.00,Wunderground v.1.15,2013-04-08 19:30:00,
2013-04-08 15:35:00,79.5,57.5,30.08,WSW,257,3.0,4.0,47,0.00,,,0.00,Wunderground v.1.15,2013-04-08 19:35:00,
2013-04-08 15:40:00,79.8,56.6,30.08,WNW,294,4.0,4.0,45,0.00,,,0.00,Wunderground v.1.15,2013-04-08 19:40:00,
2013-04-08 15:45:00,79.4,56.8,30.08,SSE,161,3.0,4.0,46,0.00,,,0.00,Wunderground v.1.15,2013-04-08 19:45:00,
2013-04-08 15:50:00,79.0,57.0,30.07,SSE,159,3.0,3.0,47,0.00,,,0.00,Wunderground v.1.15,2013-04-08 19:50:00,
2013-04-08 16:00:00,78.0,56.7,30.07,South,191,1.0,1.0,48,0.00,,,0.00,Wunderground v.1.15,2013-04-08 20:00:00,
2013-04-08 16:05:00,78.7,56.8,30.06,SW,234,1.0,1.0,47,0.00,,,0.00,Wunderground v.1.15,2013-04-08 20:05:00,
2013-04-08 16:15:00,79.2,56.0,30.06,South,191,2.0,2.0,45,0.00,,,0.00,Wunderground v.1.15,2013-04-08 20:15:00,
2013-04-08 16:25:00,79.6,56.4,30.06,South,185,3.0,3.0,45,0.00,,,0.00,Wunderground v.1.15,2013-04-08 20:25:00,
2013-04-08 16:30:00,78.9,55.8,30.06,SSW,207,3.0,3.0,45,0.00,,,0.00,Wunderground v.1.15,2013-04-08 20:30:00,
2013-04-08 16:40:00,79.4,56.2,30.06,WNW,285,2.0,5.0,45,0.00,,,0.00,Wunderground v.1.15,2013-04-08 20:40:00,
2013-04-08 16:50:00,79.0,56.5,30.05,SE,129,3.0,3.0,46,0.00,,,0.00,Wunderground v.1.15,2013-04-08 20:50:00,
2013-04-08 16:55:00,78.9,57.0,30.05,South,187,2.0,3.0,47,0.00,,,0.00,Wunderground v.1.15,2013-04-08 20:55:00,
2013-04-08 17:00:00,78.8,56.3,30.05,SSE,149,2.0,2.0,46,0.00,,,0.00,Wunderground v.1.15,2013-04-08 21:00:00,
2013-04-08 17:05:00,78.6,56.1,30.05,WSW,242,2.0,3.0,46,0.00,,,0.00,Wunderground v.1.15,2013-04-08 21:05:00,
2013-04-08 17:15:00,78.9,56.4,30.05,West,261,1.0,3.0,46,0.00,,,0.00,Wunderground v.1.15,2013-04-08 21:15:00,
2013-04-08 17:20:00,78.7,56.2,30.05,SSW,197,2.0,2.0,46,0.00,,,0.00,Wunderground v.1.15,2013-04-08 21:20:00,
2013-04-08 17:30:00,78.7,56.2,30.05,SE,136,2.0,3.0,46,0.00,,,0.00,Wunderground v.1.15,2013-04-08 21:30:00,
2013-04-08 17:35:00,78.7,56.8,30.05,SSE,153,2.0,3.0,47,0.00,,,0.00,Wunderground v.1.15,2013-04-08 21:35:00,
2013-04-08 17:40:00,78.7,56.2,30.05,SSW,205,2.0,2.0,46,0.00,,,0.00,Wunderground v.1.15,2013-04-08 21:40:00,
2013-04-08 17:45:00,78.7,56.2,30.05,SSE,155,2.0,2.0,46,0.00,,,0.00,Wunderground v.1.15,2013-04-08 21:45:00,
2013-04-08 17:55:00,78.5,56.6,30.06,SSE,157,3.0,5.0,47,0.00,,,0.00,Wunderground v.1.15,2013-04-08 21:55:00,
2013-04-08 18:00:00,78.3,56.4,30.06,SE,141,2.0,2.0,47,0.00,,,0.00,Wunderground v.1.15,2013-04-08 22:00:00,
2013-04-08 18:05:00,78.1,56.2,30.06,South,176,1.0,2.0,47,0.00,,,0.00,Wunderground v.1.15,2013-04-08 22:05:00,
2013-04-08 18:15:00,78.0,56.7,30.05,SSE,149,1.0,3.0,48,0.00,,,0.00,Wunderground v.1.15,2013-04-08 22:15:00,
2013-04-08 18:20:00,78.1,56.2,30.05,SSE,157,1.0,1.0,47,0.00,,,0.00,Wunderground v.1.15,2013-04-08 22:20:00,
2013-04-08 18:25:00,78.3,57.0,30.05,SW,223,1.0,1.0,48,0.00,,,0.00,Wunderground v.1.15,2013-04-08 22:25:00,
2013-04-08 18:35:00,78.0,56.1,30.06,South,173,1.0,3.0,47,0.00,,,0.00,Wunderground v.1.15,2013-04-08 22:35:00,
2013-04-08 18:40:00,77.6,55.2,30.06,SE,141,2.0,2.0,46,0.00,,,0.00,Wunderground v.1.15,2013-04-08 22:40:00,
2013-04-08 18:45:00,77.1,55.3,30.06,SE,139,2.0,3.0,47,0.00,,,0.00,Wunderground v.1.15,2013-04-08 22:45:00,
2013-04-08 18:50:00,76.8,55.0,30.06,South,185,2.0,2.0,47,0.00,,,0.00,Wunderground v.1.15,2013-04-08 22:50:00,
2013-04-08 19:00:00,76.2,55.6,30.06,SW,231,1.0,1.0,49,0.00,,,0.00,Wunderground v.1.15,2013-04-08 23:00:00,
2013-04-08 19:05:00,76.0,55.5,30.06,WSW,252,1.0,1.0,49,0.00,,,0.00,Wunderground v.1.15,2013-04-08 23:05:00,
2013-04-08 19:15:00,75.5,55.0,30.06,SW,230,0.0,1.0,49,0.00,,,0.00,Wunderground v.1.15,2013-04-08 23:15:00,
2013-04-08 19:20:00,75.2,54.7,30.07,South,173,1.0,1.0,49,0.00,,,0.00,Wunderground v.1.15,2013-04-08 23:20:00,
2013-04-08 19:25:00,75.1,55.2,30.07,South,173,0.0,1.0,50,0.00,,,0.00,Wunderground v.1.15,2013-04-08 23:25:00,
2013-04-08 19:30:00,74.8,54.9,30.07,SSW,195,0.0,1.0,50,0.00,,,0.00,Wunderground v.1.15,2013-04-08 23:30:00,
2013-04-08 19:40:00,74.2,54.9,30.07,SSE,168,0.0,0.0,51,0.00,,,0.00,Wunderground v.1.15,2013-04-08 23:40:00,
2013-04-08 19:45:00,73.9,54.6,30.07,SSE,168,0.0,0.0,51,0.00,,,0.00,Wunderground v.1.15,2013-04-08 23:45:00,
2013-04-08 19:55:00,73.0,54.9,30.07,South,176,0.0,0.0,53,0.00,,,0.00,Wunderground v.1.15,2013-04-08 23:55:00,
2013-04-08 20:00:00,72.5,54.9,30.07,South,176,0.0,0.0,54,0.00,,,0.00,Wunderground v.1.15,2013-04-09 00:00:00,
2013-04-08 20:05:00,71.9,54.9,30.07,South,176,0.0,0.0,55,0.00,,,0.00,Wunderground v.1.15,2013-04-09 00:05:00,
2013-04-08 20:15:00,71.0,54.5,30.08,South,176,0.0,0.0,56,0.00,,,0.00,Wunderground v.1.15,2013-04-09 00:15:00,
2013-04-08 20:25:00,70.4,54.4,30.08,South,176,0.0,0.0,57,0.00,,,0.00,Wunderground v.1.15,2013-04-09 00:25:00,
2013-04-08 20:30:00,70.2,54.7,30.08,South,176,0.0,0.0,58,0.00,,,0.00,Wunderground v.1.15,2013-04-09 00:30:00,
2013-04-08 20:35:00,69.8,54.8,30.08,South,176,0.0,0.0,59,0.00,,,0.00,Wunderground v.1.15,2013-04-09 00:35:00,
2013-04-08 20:40:00,69.3,54.4,30.08,South,176,0.0,0.0,59,0.00,,,0.00,Wunderground v.1.15,2013-04-09 00:40:00,
2013-04-08 20:45:00,68.9,54.4,30.08,South,176,0.0,0.0,60,0.00,,,0.00,Wunderground v.1.15,2013-04-09 00:45:00,
2013-04-08 20:50:00,68.4,54.4,30.08,South,176,0.0,0.0,61,0.00,,,0.00,Wunderground v.1.15,2013-04-09 00:50:00,
2013-04-08 21:00:00,67.6,54.6,30.09,South,176,0.0,0.0,63,0.00,,,0.00,Wunderground v.1.15,2013-04-09 01:00:00,
2013-04-08 21:05:00,67.1,54.1,30.09,South,176,0.0,0.0,63,0.00,,,0.00,Wunderground v.1.15,2013-04-09 01:05:00,
2013-04-08 21:15:00,66.3,54.2,30.09,South,176,0.0,0.0,65,0.00,,,0.00,Wunderground v.1.15,2013-04-09 01:15:00,
2013-04-08 21:20:00,65.8,54.1,30.09,South,176,0.0,0.0,66,0.00,,,0.00,Wunderground v.1.15,2013-04-09 01:20:00,
2013-04-08 21:25:00,65.4,54.2,30.10,South,176,0.0,0.0,67,0.00,,,0.00,Wunderground v.1.15,2013-04-09 01:25:00,
2013-04-08 21:30:00,65.2,54.0,30.10,South,176,0.0,0.0,67,0.00,,,0.00,Wunderground v.1.15,2013-04-09 01:30:00,
2013-04-08 21:40:00,64.7,53.9,30.10,South,176,0.0,0.0,68,0.00,,,0.00,Wunderground v.1.15,2013-04-09 01:40:00,
2013-04-08 21:45:00,64.4,53.6,30.10,South,176,0.0,0.0,68,0.00,,,0.00,Wunderground v.1.15,2013-04-09 01:45:00,
2013-04-08 21:50:00,64.3,53.5,30.10,South,176,0.0,0.0,68,0.00,,,0.00,Wunderground v.1.15,2013-04-09 01:50:00,
2013-04-08 22:00:00,64.4,53.6,30.10,South,176,0.0,0.0,68,0.00,,,0.00,Wunderground v.1.15,2013-04-09 02:00:00,
2013-04-08 22:05:00,64.5,53.7,30.11,South,176,0.0,0.0,68,0.00,,,0.00,Wunderground v.1.15,2013-04-09 02:05:00,
2013-04-08 22:15:00,64.2,53.8,30.10,South,176,0.0,0.0,69,0.00,,,0.00,Wunderground v.1.15,2013-04-09 02:15:00,
2013-04-08 22:20:00,64.1,53.7,30.11,South,176,0.0,0.0,69,0.00,,,0.00,Wunderground v.1.15,2013-04-09 02:20:00,
2013-04-08 22:30:00,64.3,53.9,30.11,West,281,0.0,0.0,69,0.00,,,0.00,Wunderground v.1.15,2013-04-09 02:30:00,
2013-04-08 22:35:00,64.5,53.7,30.11,West,281,0.0,0.0,68,0.00,,,0.00,Wunderground v.1.15,2013-04-09 02:35:00,
2013-04-08 22:40:00,64.8,54.0,30.11,West,274,0.0,0.0,68,0.00,,,0.00,Wunderground v.1.15,2013-04-09 02:40:00,
2013-04-08 22:45:00,65.2,54.8,30.11,West,270,0.0,0.0,69,0.00,,,0.00,Wunderground v.1.15,2013-04-09 02:45:00,
2013-04-08 22:55:00,65.6,55.2,30.11,SSW,207,0.0,0.0,69,0.00,,,0.00,Wunderground v.1.15,2013-04-09 02:55:00,
2013-04-08 23:00:00,65.7,55.2,30.11,SSW,207,0.0,0.0,69,0.00,,,0.00,Wunderground v.1.15,2013-04-09 03:00:00,
2013-04-08 23:05:00,65.7,55.2,30.11,SSW,207,0.0,0.0,69,0.00,,,0.00,Wunderground v.1.15,2013-04-09 03:05:00,
2013-04-08 23:15:00,65.7,55.6,30.11,SSW,195,0.0,0.0,70,0.00,,,0.00,Wunderground v.1.15,2013-04-09 03:15:00,
2013-04-08 23:20:00,65.7,55.6,30.11,ESE,107,0.0,0.0,70,0.00,,,0.00,Wunderground v.1.15,2013-04-09 03:20:00,
2013-04-08 23:30:00,65.5,55.8,30.11,ESE,110,0.0,0.0,71,0.00,,,0.00,Wunderground v.1.15,2013-04-09 03:30:00,
2013-04-08 23:35:00,65.4,55.7,30.11,ESE,114,0.0,0.0,71,0.00,,,0.00,Wunderground v.1.15,2013-04-09 03:35:00,
2013-04-08 23:45:00,65.1,55.8,30.11,SSE,162,0.0,0.0,72,0.00,,,0.00,Wunderground v.1.15,2013-04-09 03:45:00,
2013-04-08 23:50:00,64.8,55.6,30.11,SSE,162,0.0,0.0,72,0.00,,,0.00,Wunderground v.1.15,2013-04-09 03:50:00,
2013-04-08 23:55:00,64.8,55.9,30.11,South,178,0.0,0.0,73,0.00,,,0.00,Wunderground v.1.15,2013-04-09 03:55:00,